North Las Vegas, NV

12:47 AM PST on February 10, 2016 (GMT -0800)
North Las Vegas

Weather History for KVGT - January, 2013

Change the Weather History Date:

Thursday, January 24, 2013

  Actual Average Record
Temperature  
Mean Temperature 52 °F 49 °F  
Max Temperature 55 °F 59 °F 69 °F (2003)
Min Temperature 48 °F 39 °F 33 °F (2002)
Degree Days  
Heating Degree Days 14 16  
Month to date heating degree days 420  
Since 1 July heating degree days 1300  
Cooling Degree Days 0 0  
Month to date cooling degree days 0  
Year to date cooling degree days 0  
Growing Degree Days 2 (Base 50)    
Moisture  
Dew Point 35 °F    
Average Humidity 55    
Maximum Humidity 77    
Minimum Humidity 31    
Precipitation  
Precipitation 0.01 in 0.02 in 0.04 in (2008)
Month to date precipitation 0.58  
Year to date precipitation 0.58  
Sea Level Pressure  
Sea Level Pressure 30.25 in    
Wind  
Wind Speed 3 mph (NE)    
Max Wind Speed 7 mph    
Max Gust Speed -    
Visibility 10 miles    
Events Rain    
T = Trace of Precipitation, MM = Missing Value Source: NWS Daily Summary

Daily Weather History Graph

Daily Weather History Graph

Search for Another Location

Airport or City:

Trip Planner

Search our weather history database for the weather conditions in past years. The results will help you decide how hot, cold, wet, or windy it might be!

Date:

Astronomy

Jan. 24, 2013 Rise Set
Actual Time 6:47 AM PST 4:59 PM PST
Civil Twilight 6:19 AM PST 5:26 PM PST
Nautical Twilight 5:48 AM PST 5:57 PM PST
Astronomical Twilight 5:17 AM PST 6:28 PM PST
Moon 3:06 PM PST (1/24) 4:46 AM PST (1/24)
Length of Visible Light 11h 07m
Length of Day
10h 12m
Waxing Gibbous, 95% of the Moon is Illuminated
Jan 24
Waxing Gibbous
Jan 26
Full
Feb 3
Last Quarter
Feb 9
New
Feb 17
First Quarter

Hourly Weather History & Observations

Time (PST) Temp. Dew Point Humidity Pressure Visibility Wind Dir Wind Speed Gust Speed Precip Events Conditions
12:53 AM 50.0 °F 21.0 °F 32% 30.19 in 10.0 mi NNW 4.6 mph - N/A   Scattered Clouds
1:53 AM 51.1 °F 21.0 °F 31% 30.20 in 10.0 mi Calm Calm - N/A   Overcast
2:53 AM 51.1 °F 21.9 °F 32% 30.19 in 10.0 mi NNE 6.9 mph - N/A   Overcast
3:53 AM 51.1 °F 21.0 °F 31% 30.17 in 10.0 mi WNW 3.5 mph - N/A   Overcast
4:53 AM 52.0 °F 24.1 °F 34% 30.17 in 10.0 mi Calm Calm - N/A   Overcast
5:53 AM 50.0 °F 33.1 °F 52% 30.19 in 10.0 mi North 4.6 mph - 0.00 in   Overcast
6:53 AM 48.9 °F 37.9 °F 66% 30.21 in 10.0 mi Calm Calm - 0.00 in Rain Light Rain
7:53 AM 50.0 °F 39.9 °F 68% 30.23 in 10.0 mi North 5.8 mph - 0.01 in Rain Light Rain
8:53 AM 50.0 °F 43.0 °F 77% 30.27 in 10.0 mi SSE 3.5 mph - 0.00 in Rain Light Rain
9:53 AM 52.0 °F 41.0 °F 66% 30.28 in 10.0 mi NNE 4.6 mph - 0.00 in Rain Light Rain
10:53 AM 54.0 °F 41.0 °F 62% 30.28 in 10.0 mi South 3.5 mph - 0.00 in   Overcast
11:53 AM 55.0 °F 36.0 °F 49% 30.27 in 10.0 mi Calm Calm - N/A   Overcast
12:53 PM 55.0 °F 36.0 °F 49% 30.25 in 10.0 mi ESE 3.5 mph - 0.00 in   Overcast
1:53 PM 54.0 °F 37.0 °F 53% 30.26 in 10.0 mi ESE 6.9 mph - N/A   Overcast
2:53 PM 55.0 °F 36.0 °F 49% 30.26 in 10.0 mi ENE 4.6 mph - 0.00 in   Overcast
3:53 PM 55.0 °F 37.9 °F 53% 30.25 in 10.0 mi NE 4.6 mph - N/A   Overcast
4:53 PM 53.1 °F 42.1 °F 66% 30.26 in 10.0 mi WSW 4.6 mph - 0.00 in Rain Light Rain
5:53 PM 53.1 °F 41.0 °F 64% 30.29 in 10.0 mi SW 5.8 mph - 0.00 in   Overcast
6:53 PM 53.1 °F 39.0 °F 59% 30.30 in 10.0 mi Calm Calm - N/A   Overcast
7:53 PM 53.1 °F 39.9 °F 61% 30.29 in 10.0 mi Calm Calm - N/A   Overcast
8:53 PM 52.0 °F 39.9 °F 63% 30.31 in 10.0 mi Calm Calm - N/A   Overcast
9:53 PM 53.1 °F 39.0 °F 59% 30.31 in 10.0 mi Calm Calm - N/A   Overcast
10:53 PM 53.1 °F 39.9 °F 61% 30.31 in 10.0 mi Calm Calm - N/A   Overcast
11:53 PM 51.1 °F 43.0 °F 74% 30.30 in 10.0 mi Calm Calm - N/A   Overcast